Location: Martley
(52.2333°N, 2.3667°W)
Time: 16:35:18
(UTC+00:00)

GEOS 3 Rocket - Pass Details

Date: 11 December 2019
Orbit: 782 x 837 km, 115.0° (Epoch: 23 January)

Event Time Altitude Azimuth Distance (km) Brightness Sun altitude
Rises 04:58:58 0° 147° (SSE) 3,264 7.2 -27.6°
Reaches altitude 10° 05:01:16 10° 151° (SSE) 2,343 6.4 -27.2°
Enters shadow 05:05:25 51° 191° (SSW) 988 3.9 -26.6°
